Showing default

ION SCV-007, 55060

Orbit data source: Space-Track

ION SCV-007, 55060 is a payload satellite owned by D-ORBIT (IT) in SSO that was launched on Tue, 03 Jan 2023 UTC via an FALCON 9 launch vehicle from the Air Force Eastern Test Range (AFETR). Payload-class satellites include a variety of spacecraft equipped with specific instruments for various scientific and technological missions. These include communications satellites like Starlink; space stations such as the ISS; scientific satellites like the Hubble; Earth observation satellites from companies like Planet Labs, Umbra, and HawkEye 360; GPS; miniature CubeSats for education and research; and military/defense satellites.

Loading next visibility...
Identifier
55060, 2023-001BD
Orbit
SSO
Country
Flag of ITIT
Related business
Manufacturer
D-ORBIT
Mission
Operational Commercial Technology
Bus & Motor
ION-SC, PM200
Mass
220 kg wet, 150 kg dry
Launch date (UTC)
2023-01-03 (3 years ago)
Launch vehicle
FALCON 9
Launch site
Air Force Eastern Test Range (AFETR)
Object type
Payload
Rocket body
Debris
Shape & HBR
Box, 0.2 m
Radar Cross Section
0.240 m², Large (>1 m²)

Expand to show TLE details & history
Last TLE update: 13 hours ago

TLE from 13 hours ago
0 ION SCV-007
1 55060U 23001BD  26166.77582086  .00000370  00000-0  58925-4 0  9999
2 55060  97.9007 229.8188 0011923 347.0502  13.0400 14.77552282186045
Epoch: 2026-06-15T18:37Z
TLE epoch observation values (Epoch: 2026-06-15T18:37:10.922Z)
Latitude
-0.00008°
Longitude
46.46594°
Altitude
631.929 km
Speed
7.547 km/s
True Right ascension
15h 19m 16s
True Declination
0° 00' 00"
Sunlit
Object was in full shadow at epoch
Visualization orbit readout
Latitude
Unknown
Longitude
Unknown
Altitude
Unknown
Speed
Unknown
Apparent Right ascension
Unknown
Apparent Declination
Unknown
Sunlit
N/A
Visualization observer readout
Local Sidereal Time
18:01:03
Azimuth
Unknown
Elevation
Unknown
Doppler factor
Unknown
Orbital elements
Apogee altitude
642.466 km
Perigee altitude
625.745 km
Semi-major axis
7,012.242 km
Eccentricity
0.00119
Inclination
97.9007°
RAAN
229.8188°
Arg. of periapsis
347.0502°
True anomaly
13.07087°
Mean anomaly
13.04°
Eccentric anomaly
13.05543°
Mean motion
3.69622 °/min
Orbital period
97.4 mins
BSTAR
0.000058925
Loading maneuver chart data...
Computing Atmospheric mass density...

Documentation

Showing up to 5 results
|